Boonville, MO

9:00 PM CDT on April 19, 2018 (GMT -0500)
Viertel Memorial

Weather History for KVER - January, 2014

Change the Weather History Date:

Thursday, January 16, 2014

  Actual Average Record
Temperature  
Mean Temperature 32 °F -  
Max Temperature 46 °F 38 °F 69 °F (2012)
Min Temperature 18 °F 19 °F -13 °F (1972)
Degree Days  
Heating Degree Days 33    
Moisture  
Dew Point 21 °F    
Average Humidity 54    
Maximum Humidity 74    
Minimum Humidity 39    
Precipitation  
Precipitation 0.00 in - - ()
Sea Level Pressure  
Sea Level Pressure 29.82 in    
Wind  
Wind Speed 9 mph (West)    
Max Wind Speed 28 mph    
Max Gust Speed 40 mph    
Visibility 10 miles    
Events Snow    
Averages and records for this station are not official NWS values.
T = Trace of Precipitation, MM = Missing Value Source: NWS Daily Summary

Daily Weather History Graph

Daily Weather History Graph

Search for Another Location

Airport or City:

Trip Planner

Search our weather history database for the weather conditions in past years. The results will help you decide how hot, cold, wet, or windy it might be!

Date:

Astronomy

Jan. 16, 2014 Rise Set
Actual Time 7:27 AM CST 5:13 PM CST
Civil Twilight 6:58 AM CST 5:43 PM CST
Nautical Twilight 6:25 AM CST 6:15 PM CST
Astronomical Twilight 5:53 AM CST 6:47 PM CST
Moon 6:05 PM CST (1/16) 7:22 AM CST (1/16)
Length of Visible Light 10h 44m
Length of Day
9h 46m
Full, 100% of the Moon is Illuminated
Jan 16
Full
Jan 23
Last Quarter
Jan 30
New
Feb 6
First Quarter
Feb 14
Full

Hourly Weather History & Observations

Time (CST) Temp. Windchill Dew Point Humidity Pressure Visibility Wind Dir Wind Speed Gust Speed Precip Events Conditions
12:15 AM 32.7 °F 26.4 °F 15.3 °F 49% 29.85 in 10.0 mi South 6.9 mph - N/A   Overcast
12:35 AM 32.9 °F 27.5 °F 16.7 °F 51% 29.84 in 10.0 mi South 5.8 mph - N/A   Overcast
12:55 AM 33.1 °F 28.7 °F 17.6 °F 53% 29.84 in 10.0 mi South 4.6 mph - N/A   Overcast
1:15 AM 33.1 °F 26.9 °F 18.7 °F 56% 29.82 in 10.0 mi South 6.9 mph - N/A   Overcast
1:35 AM 33.4 °F 29.1 °F 20.8 °F 60% 29.82 in 10.0 mi South 4.6 mph - N/A   Light Drizzle
1:55 AM 34.9 °F 29.0 °F 21.4 °F 58% 29.83 in 10.0 mi South 6.9 mph - N/A Snow Light Snow
2:15 AM 34.9 °F 29.9 °F 22.3 °F 60% 29.82 in 10.0 mi South 5.8 mph - N/A Snow Light Snow
2:35 AM 34.5 °F 28.6 °F 24.1 °F 66% 29.80 in 10.0 mi South 6.9 mph - N/A   Light Drizzle
2:55 AM 34.5 °F 27.9 °F 23.5 °F 64% 29.80 in 10.0 mi South 8.1 mph - N/A   Light Drizzle
3:15 AM 34.5 °F 30.4 °F 23.2 °F 63% 29.80 in 10.0 mi SSW 4.6 mph - N/A   Overcast
3:35 AM 34.3 °F 29.2 °F 23.7 °F 65% 29.78 in 10.0 mi SSW 5.8 mph - N/A   Overcast
3:55 AM 34.5 °F 28.6 °F 23.0 °F 63% 29.78 in 10.0 mi SSW 6.9 mph - N/A   Overcast
4:15 AM 34.7 °F 29.6 °F 22.5 °F 61% 29.78 in 10.0 mi SSW 5.8 mph - N/A   Mostly Cloudy
4:35 AM 34.9 °F 30.8 °F 22.5 °F 61% 29.76 in 10.0 mi SSW 4.6 mph - N/A   Mostly Cloudy
4:55 AM 34.5 °F 29.4 °F 22.6 °F 62% 29.74 in 10.0 mi SSW 5.8 mph - N/A   Mostly Cloudy
5:15 AM 35.1 °F - 23.0 °F 61% 29.70 in 10.0 mi Calm Calm - N/A   Mostly Cloudy
5:35 AM 35.8 °F - 23.5 °F 61% 29.70 in 10.0 mi Calm Calm - N/A   Scattered Clouds
5:55 AM 36.3 °F 30.8 °F 23.7 °F 60% 29.71 in 10.0 mi SW 6.9 mph - N/A   Clear
6:15 AM 36.0 °F 32.1 °F 23.7 °F 61% 29.72 in 10.0 mi SW 4.6 mph - N/A   Clear
6:35 AM 35.4 °F 29.7 °F 23.7 °F 62% 29.73 in 10.0 mi WSW 6.9 mph - N/A   Clear
6:55 AM 35.8 °F - 23.9 °F 62% 29.74 in 10.0 mi Calm Calm - N/A   Clear
7:15 AM 35.2 °F 29.5 °F 24.1 °F 64% 29.75 in 10.0 mi WSW 6.9 mph - N/A   Clear
7:35 AM 34.5 °F 29.4 °F 24.4 °F 67% 29.75 in 10.0 mi WSW 5.8 mph - N/A   Clear
7:55 AM 34.7 °F 28.8 °F 24.6 °F 67% 29.76 in 10.0 mi WSW 6.9 mph - N/A   Clear
8:15 AM 36.0 °F 29.0 °F 25.2 °F 65% 29.76 in 10.0 mi WSW 9.2 mph - N/A   Clear
8:35 AM 37.9 °F 31.5 °F 25.5 °F 61% 29.77 in 10.0 mi WSW 9.2 mph 16.1 mph N/A   Clear
8:55 AM 39.2 °F 33.0 °F 25.7 °F 58% 29.77 in 10.0 mi West 9.2 mph - N/A   Mostly Cloudy
9:15 AM 39.6 °F 34.7 °F 26.1 °F 58% 29.78 in 10.0 mi West 6.9 mph - N/A   Overcast
9:35 AM 40.1 °F 33.2 °F 26.4 °F 58% 29.79 in 10.0 mi West 11.5 mph 18.4 mph N/A   Overcast
9:55 AM 40.5 °F 34.1 °F 26.8 °F 58% 29.79 in 10.0 mi West 10.4 mph - N/A   Overcast
10:15 AM 41.4 °F 35.7 °F 27.1 °F 57% 29.79 in 10.0 mi West 9.2 mph 16.1 mph N/A   Overcast
10:35 AM 43.0 °F 36.8 °F 27.0 °F 53% 29.79 in 10.0 mi WNW 11.5 mph 19.6 mph N/A   Mostly Cloudy
10:55 AM 45.1 °F 37.9 °F 26.2 °F 48% 29.78 in 10.0 mi WNW 17.3 mph 31.1 mph N/A   Mostly Cloudy
11:15 AM 46.2 °F 37.9 °F 24.4 °F 42% 29.78 in 10.0 mi West 24.2 mph 29.9 mph N/A   Scattered Clouds
11:35 AM 45.0 °F 38.2 °F 23.2 °F 42% 29.78 in 10.0 mi WNW 15.0 mph 29.9 mph N/A   Scattered Clouds
11:55 AM 45.9 °F 39.1 °F 23.2 °F 41% 29.77 in 10.0 mi WNW 16.1 mph 27.6 mph N/A   Clear
12:15 PM 45.7 °F 39.5 °F 21.9 °F 39% 29.76 in 10.0 mi West 13.8 mph 21.9 mph N/A   Clear
12:35 PM 45.1 °F 38.4 °F 22.6 °F 41% 29.77 in 10.0 mi WNW 15.0 mph 25.3 mph N/A   Mostly Cloudy
12:55 PM 45.0 °F 38.2 °F 22.5 °F 41% 29.77 in 10.0 mi West 15.0 mph 26.5 mph N/A   Overcast
1:15 PM 44.4 °F 37.2 °F 22.3 °F 42% 29.77 in 10.0 mi WNW 16.1 mph 19.6 mph N/A   Overcast
1:35 PM 44.1 °F 35.7 °F 22.3 °F 42% 29.76 in 10.0 mi West 20.7 mph 31.1 mph N/A   Overcast
1:55 PM 44.1 °F 36.2 °F 22.1 °F 42% 29.77 in 10.0 mi WNW 18.4 mph 24.2 mph N/A   Overcast
2:35 PM 43.5 °F 36.1 °F 21.0 °F 41% 29.78 in 10.0 mi WNW 16.1 mph 23.0 mph N/A   Overcast
2:55 PM 43.7 °F 37.3 °F 20.7 °F 40% 29.79 in 10.0 mi West 12.7 mph 20.7 mph N/A   Overcast
3:15 PM 43.3 °F 37.2 °F 19.9 °F 39% 29.79 in 10.0 mi WNW 11.5 mph 26.5 mph N/A   Overcast
3:35 PM 43.0 °F 37.7 °F 21.2 °F 42% 29.80 in 10.0 mi WNW 9.2 mph 21.9 mph N/A   Overcast
3:55 PM 41.9 °F 34.3 °F 23.4 °F 48% 29.81 in 10.0 mi NW 15.0 mph 21.9 mph N/A   Overcast
4:15 PM 40.8 °F 36.9 °F 25.5 °F 55% 29.80 in 10.0 mi WNW 5.8 mph - N/A   Overcast
4:35 PM 40.6 °F 37.5 °F 25.7 °F 55% 29.80 in 10.0 mi West 4.6 mph - N/A   Overcast
4:55 PM 40.6 °F 34.8 °F 24.6 °F 53% 29.80 in 10.0 mi West 9.2 mph 19.6 mph N/A   Overcast
5:15 PM 40.8 °F 36.2 °F 23.5 °F 50% 29.80 in 10.0 mi West 6.9 mph - N/A   Overcast
5:35 PM 39.7 °F 35.6 °F 24.1 °F 54% 29.81 in 10.0 mi WNW 5.8 mph - N/A   Overcast
5:55 PM 39.2 °F 32.5 °F 25.2 °F 57% 29.81 in 10.0 mi WNW 10.4 mph - N/A   Overcast
6:15 PM 38.7 °F 31.4 °F 25.0 °F 58% 29.81 in 10.0 mi West 11.5 mph - N/A   Scattered Clouds
6:35 PM 38.3 °F 31.9 °F 24.4 °F 57% 29.82 in 10.0 mi West 9.2 mph 17.3 mph N/A   Scattered Clouds
6:55 PM 37.9 °F 26.6 °F 24.6 °F 59% 29.85 in 10.0 mi WNW 25.3 mph 35.7 mph N/A   Mostly Cloudy
7:15 PM 34.9 °F 24.9 °F 27.1 °F 73% 29.86 in 10.0 mi WNW 16.1 mph 27.6 mph N/A   Overcast
7:35 PM 33.8 °F 23.5 °F 26.2 °F 74% 29.86 in 10.0 mi WNW 16.1 mph 24.2 mph N/A   Scattered Clouds
7:55 PM 33.8 °F 21.6 °F 19.2 °F 55% 29.87 in 10.0 mi WNW 23.0 mph 40.3 mph N/A   Scattered Clouds
8:15 PM 32.7 °F 20.1 °F 11.3 °F 41% 29.88 in 10.0 mi WNW 23.0 mph 36.8 mph N/A   Scattered Clouds
8:35 PM 30.6 °F 19.0 °F 10.6 °F 43% 29.90 in 10.0 mi WNW 17.3 mph 27.6 mph N/A   Clear
8:55 PM 28.6 °F 16.0 °F 10.0 °F 46% 29.92 in 10.0 mi NW 18.4 mph 29.9 mph N/A   Scattered Clouds
9:15 PM 26.2 °F 10.3 °F 11.3 °F 53% 29.95 in 10.0 mi WNW 27.6 mph 39.1 mph N/A   Mostly Cloudy
9:35 PM 23.9 °F 9.9 °F 5.7 °F 46% 29.96 in 10.0 mi WNW 18.4 mph 29.9 mph N/A   Scattered Clouds
9:55 PM 22.3 °F 7.4 °F 9.0 °F 57% 29.97 in 10.0 mi NW 19.6 mph 29.9 mph N/A   Mostly Cloudy
10:15 PM 21.0 °F 5.4 °F 7.5 °F 56% 29.98 in 10.0 mi NW 20.7 mph 31.1 mph N/A   Mostly Cloudy
10:35 PM 20.3 °F 3.7 °F 4.1 °F 50% 29.98 in 10.0 mi NW 23.0 mph 34.5 mph N/A   Overcast
10:55 PM 19.6 °F 4.3 °F 3.6 °F 50% 29.99 in 10.0 mi NW 18.4 mph 28.8 mph N/A   Scattered Clouds
11:15 PM 18.9 °F 3.8 °F 4.1 °F 53% 30.00 in 10.0 mi WNW 17.3 mph 24.2 mph N/A   Scattered Clouds
11:35 PM 18.5 °F 7.5 °F 3.4 °F 52% 30.00 in 10.0 mi WNW 9.2 mph 24.2 mph N/A   Scattered Clouds
11:55 PM 18.5 °F 6.8 °F 3.4 °F 52% 30.00 in 10.0 mi WNW 10.4 mph 20.7 mph N/A   Scattered Clouds